Location: Daytona Beach
(29.2106°N, 81.0231°W)
Time: 00:01:53
(UTC-04:00)

PSAT 2 - Pass Details

Date: 27 September 2021
Orbit: 299 x 725 km, 28.5° (Epoch: 15 October)

Event Time Altitude Azimuth Distance (km) Brightness Sun altitude
Rises 21:48:25 0° 267° (W) 3,131 ? -34.0°
Reaches altitude 10° 21:51:42 10° 247° (WSW) 2,218 ? -34.7°
Enters shadow 21:53:13 14° 232° (SW) 1,932 ? -35.0°
